Temp
65 65 65 65 65 65 65 65 65 65 66 66 66 65 65 65 65 62 59 68 69 70 69 69 67 64 64 65 64 65 53 52 56 58 57 63 61 64 65 65 64 64 61 64 68
64 64 64 65 64 64 65 65 65 65 65 66 66 65 64 65 61 57 68 70 70 70 67 64 59 62 57 60 60 58 52 56 62 60 58 63 62 63 62 60 57 57 61 65 64
64 64 64 64 64 64 64 64 64 64 65 65 65 64 63 65 57 58 70 70 70 69 67 66 64 60 53 56 60 55 52 62 62 64 66 63 61 63 61 56 61 57 58 61 61
63 63 63 63 64 64 64 64 64 64 65 64 65 64 62 61 46 64 69 70 69 69 66 64 60 53 48 51 59 52 57 59 64 66 65 62 63 60 60 61 66 64 62 62 62
62 62 62 63 63 64 64 63 64 64 64 65 64 63 61 53 54 69 67 69 67 65 62 62 57 54 49 51 54 53 59 64 66 64 65 64 60 59 60 62 64 65 63 61 62
62 62 62 62 62 63 63 63 63 63 64 65 65 63 57 48 67 69 67 65 65 63 61 62 60 60 54 53 52 57 59 61 62 63 63 61 58 60 61 63 62 63 59 60 61
61 61 61 61 62 62 63 63 63 63 64 65 64 63 56 55 67 67 67 64 65 64 60 63 63 59 57 52 58 59 56 60 57 59 59 60 55 57 61 64 61 60 58 59 61
61 60 60 61 61 61 62 62 62 63 63 64 64 58 51 64 62 65 66 63 66 66 64 66 64 57 55 56 55 50 49 48 58 58 59 58 50 62 65 61 61 59 57 59 60
60 60 60 60 60 60 61 61 61 62 63 63 56 53 49 62 57 63 65 60 63 64 64 68 61 54 52 48 44 45 38 43 50 57 57 55 51 62 65 63 60 59 58 59 60
60 59 59 59 59 60 60 61 61 62 60 60 57 48 52 52 57 61 64 64 58 57 56 57 51 45 44 42 37 37 40 44 47 54 54 51 52 58 61 61 59 60 61 58 60
59 59 59 59 59 60 58 54 49 47 52 48 49 48 51 57 60 57 62 58 56 53 46 51 45 41 44 45 46 45 44 44 48 56 53 50 50 55 60 57 56 57 59 60 60
59 59 59 59 60 60 56 48 52 53 44 52 53 53 55 56 49 52 60 52 50 45 49 45 41 49 51 49 47 45 42 43 49 53 51 49 51 57 56 58 59 58 58 60 61
59 59 59 59 59 56 52 52 61 58 45 49 49 50 51 53 48 49 54 51 48 47 46 44 47 52 49 47 45 44 42 44 45 47 47 45 45 49 54 57 60 61 62 64 63
58 58 58 58 53 52 49 58 60 57 31 39 43 48 50 50 46 55 56 52 48 44 47 47 51 49 46 45 47 40 48 49 46 42 36 46 37 47 52 56 59 62 61 64 64
58 58 58 59 50 48 54 58 57 51 21 41 43 57 51 46 46 46 56 50 44 45 46 43 47 45 43 46 50 43 51 48 45 40 41 42 38 41 51 49 54 60 64 65 64
58 58 58 55 53 55 58 59 51 32 20 31 41 42 42 44 44 47 47 50 52 47 47 46 52 52 49 52 53 49 45 43 42 41 34 42 40 39 45 50 56 61 62 63 65
57 57 56 57 48 57 55 48 32 23 34 32 37 43 41 41 42 42 43 41 40 36 37 43 44 49 52 47 47 47 42 33 32 32 31 42 36 44 51 54 56 57 57 58 59
57 57 56 54 58 56 51 37 23 22 23 39 40 41 38 41 42 40 39 38 44 40 36 35 33 44 49 48 42 45 45 33 27 27 33 36 33 41 54 60 61 57 56 57 57
56 51 50 50 56 55 43 29 25 27 35 36 37 35 36 39 40 40 39 37 42 44 36 34 35 47 48 50 50 40 40 48 34 21 27 32 38 48 51 53 53 53 54 55 56
48 47 47 52 55 49 36 29 26 38 40 38 25 31 28 35 37 38 38 40 43 48 51 40 34 42 46 50 48 47 51 38 36 21 21 30 33 39 45 50 53 52 51 53 54
47 41 48 55 53 41 30 31 33 40 40 35 32 31 31 33 36 36 39 40 44 44 49 48 41 35 40 40 40 39 42 42 44 34 28 25 32 46 51 50 51 53 53 51 51
40 33 47 52 35 33 31 34 43 37 38 34 35 33 33 35 31 36 36 41 48 48 41 46 41 33 36 40 43 46 44 45 37 32 33 31 34 49 52 51 51 52 53 52 52
35 36 46 46 26 25 34 36 39 36 35 33 31 36 37 34 30 34 36 45 48 46 42 43 34 31 31 36 40 42 43 48 43 38 34 29 33 50 46 48 50 51 52 54 53
34 30 35 38 32 33 28 31 32 40 37 37 34 37 33 31 34 31 33 39 46 48 49 46 36 33 32 37 40 39 42 46 46 35 37 39 40 45 48 49 50 51 53 52 53
34 29 28 29 25 32 33 32 32 29 37 37 32 34 32 25 32 32 37 40 43 46 47 46 33 36 39 42 42 41 42 42 42 45 39 44 41 47 50 50 51 52 52 53 54
30 30 31 24 32 31 33 26 31 32 33 30 30 35 37 33 36 30 39 37 37 44 44 45 33 39 35 40 42 39 43 44 44 46 46 47 44 50 53 51 50 52 53 53 54
36 37 33 34 28 28 28 29 32 36 37 38 36 35 34 38 42 44 45 45 40 36 36 40 35 34 32 36 38 32 39 41 43 47 47 41 49 49 49 51 51 52 54 53 53
MSLP
1012.40 1012.91 1013.41 1013.84 1014.22 1014.62 1015.00 1015.19 1015.27 1015.79 1016.04 1016.39 1016.96 1017.37 1017.93 1018.33 1018.87 1019.04 1018.74 1018.24 1018.18 1018.12 1017.89 1018.16 1018.50 1018.52 1018.14 1018.55 1018.73 1018.58 1018.70 1018.43 1017.47 1016.54 1015.84 1015.34 1015.52 1015.88 1016.21 1016.73 1017.42 1018.20 1018.81 1018.89 1019.68
1011.51 1012.21 1012.82 1013.37 1013.88 1014.24 1014.53 1014.76 1015.06 1015.41 1015.87 1016.25 1016.72 1017.33 1017.81 1018.33 1018.81 1018.74 1018.10 1018.00 1018.16 1017.97 1018.14 1018.36 1018.84 1018.93 1019.04 1019.31 1019.61 1019.16 1019.27 1018.67 1017.63 1016.82 1016.20 1015.82 1015.71 1016.09 1016.59 1017.29 1018.27 1019.12 1019.57 1019.67 1020.16
1010.89 1011.42 1012.22 1012.87 1013.43 1013.86 1014.26 1014.46 1014.84 1015.19 1015.66 1016.17 1016.57 1017.19 1017.83 1018.26 1018.67 1017.57 1017.42 1017.76 1018.10 1018.12 1018.24 1018.59 1018.85 1019.41 1019.80 1019.64 1019.76 1019.97 1019.45 1018.25 1017.72 1016.92 1016.24 1016.20 1016.10 1016.13 1016.75 1017.54 1017.85 1018.97 1019.85 1020.23 1020.60
1010.03 1010.84 1011.51 1012.28 1012.86 1013.39 1013.96 1014.24 1014.71 1015.03 1015.33 1015.83 1016.43 1017.04 1017.81 1018.29 1018.10 1016.72 1016.46 1017.17 1018.01 1018.21 1018.37 1018.65 1019.23 1019.67 1020.38 1020.05 1019.73 1020.15 1019.49 1018.72 1017.57 1016.91 1016.66 1016.43 1016.39 1016.56 1016.93 1017.07 1017.16 1018.06 1018.86 1019.91 1020.45
1009.33 1010.10 1010.92 1011.60 1012.28 1012.89 1013.51 1013.99 1014.35 1014.76 1015.06 1015.49 1016.12 1016.83 1017.83 1017.99 1017.15 1016.50 1016.19 1017.04 1017.99 1018.43 1018.32 1018.67 1019.16 1019.54 1020.33 1020.23 1020.11 1020.02 1019.31 1018.77 1017.66 1017.10 1016.83 1016.66 1016.70 1016.92 1017.03 1016.92 1017.16 1018.06 1019.12 1019.70 1020.17
1008.64 1009.37 1010.16 1010.87 1011.63 1012.32 1012.97 1013.54 1014.04 1014.44 1014.71 1015.27 1015.79 1016.52 1017.19 1017.15 1016.40 1016.37 1016.85 1017.37 1017.91 1018.47 1018.47 1018.57 1018.76 1018.90 1019.42 1020.01 1019.91 1019.25 1019.29 1018.58 1018.18 1017.59 1017.34 1017.21 1017.18 1016.87 1016.99 1016.82 1017.73 1018.34 1019.25 1019.77 1020.06
1007.81 1008.70 1009.66 1010.47 1011.11 1011.86 1012.57 1013.24 1013.68 1014.04 1014.52 1015.00 1015.63 1016.38 1016.58 1016.04 1016.13 1016.47 1016.83 1017.22 1017.82 1018.13 1018.44 1018.30 1018.46 1018.86 1019.01 1019.42 1019.25 1019.23 1019.08 1018.75 1018.38 1017.89 1017.78 1017.48 1017.53 1017.20 1017.08 1017.22 1017.98 1018.53 1019.16 1019.62 1019.92
1006.80 1008.08 1009.08 1010.08 1010.83 1011.66 1012.32 1012.98 1013.40 1013.91 1014.28 1014.99 1015.68 1016.60 1016.46 1016.09 1016.24 1016.49 1016.63 1017.39 1017.70 1018.09 1018.33 1018.17 1018.44 1018.92 1019.13 1019.17 1019.05 1019.48 1019.36 1019.02 1018.28 1018.15 1017.91 1017.92 1017.40 1017.12 1016.90 1017.30 1017.85 1018.46 1018.73 1019.10 1019.43
1005.86 1007.34 1008.44 1009.56 1010.46 1011.41 1012.14 1012.72 1013.33 1013.74 1014.41 1015.09 1016.27 1016.68 1016.46 1016.12 1016.43 1016.47 1016.34 1017.12 1017.57 1017.86 1018.13 1018.08 1018.46 1019.08 1019.43 1019.57 1019.84 1019.68 1019.31 1019.07 1018.66 1017.87 1017.96 1018.18 1017.37 1016.73 1016.50 1017.05 1017.66 1017.77 1018.37 1018.54 1018.79
1005.00 1006.47 1007.79 1008.99 1010.00 1010.98 1011.82 1012.49 1013.31 1014.18 1014.76 1015.75 1016.31 1017.19 1016.41 1015.43 1015.93 1016.21 1016.49 1016.95 1017.63 1018.02 1018.78 1018.54 1018.97 1019.50 1019.84 1019.86 1019.24 1019.60 1019.62 1018.97 1018.34 1017.85 1017.86 1017.94 1017.23 1016.70 1016.36 1016.75 1017.25 1017.35 1017.40 1017.84 1018.12
1004.30 1005.59 1006.98 1008.35 1009.46 1010.47 1011.41 1012.65 1013.96 1014.70 1014.43 1013.79 1014.33 1014.83 1014.44 1015.05 1015.74 1016.16 1016.39 1017.05 1017.73 1018.45 1018.86 1018.82 1019.12 1018.85 1019.14 1019.35 1019.61 1019.42 1019.38 1019.08 1018.23 1017.63 1017.68 1017.71 1017.22 1016.87 1016.45 1016.93 1017.11 1017.05 1016.83 1016.93 1017.07
1003.73 1004.84 1006.24 1007.81 1008.91 1009.88 1010.72 1011.10 1011.29 1011.32 1013.48 1013.76 1014.52 1014.60 1014.68 1014.79 1015.79 1016.10 1016.46 1017.44 1017.78 1017.90 1018.66 1019.16 1018.14 1018.77 1019.52 1019.59 1019.61 1019.62 1019.60 1018.95 1018.18 1017.68 1017.72 1017.78 1017.20 1016.72 1016.50 1016.32 1016.33 1016.31 1016.30 1016.18 1015.93
1003.10 1004.22 1005.62 1007.31 1008.59 1009.61 1010.00 1010.69 1011.05 1011.19 1013.05 1014.19 1014.79 1014.85 1014.77 1015.44 1015.62 1015.99 1016.39 1017.01 1017.10 1017.57 1017.80 1017.72 1017.44 1018.77 1019.23 1019.38 1019.57 1019.43 1019.27 1018.97 1018.64 1018.22 1018.17 1018.05 1017.40 1016.71 1016.11 1015.64 1015.41 1015.16 1014.98 1014.96 1015.11
1002.38 1003.67 1005.04 1006.74 1008.89 1009.04 1009.83 1010.46 1010.74 1011.46 1013.11 1013.94 1014.22 1014.04 1014.51 1015.21 1015.76 1015.53 1015.76 1016.25 1017.18 1017.27 1017.66 1017.53 1017.68 1017.97 1018.59 1018.61 1018.90 1018.89 1018.82 1018.97 1018.79 1018.99 1018.84 1018.25 1017.14 1015.96 1015.59 1015.11 1014.60 1014.34 1014.19 1013.82 1013.96
1001.76 1003.22 1004.52 1005.76 1007.00 1008.04 1008.75 1009.99 1010.83 1011.91 1013.19 1012.73 1013.26 1013.04 1014.01 1014.92 1015.00 1015.59 1015.54 1016.36 1016.30 1017.13 1017.47 1016.65 1016.42 1017.20 1017.61 1016.92 1018.28 1018.46 1018.53 1019.09 1019.21 1019.47 1019.27 1018.93 1018.44 1015.82 1015.29 1014.68 1013.94 1013.27 1012.73 1012.66 1012.73
1001.34 1002.88 1004.24 1005.98 1007.07 1007.77 1008.64 1010.17 1011.59 1013.01 1012.40 1012.18 1012.27 1012.75 1014.00 1014.46 1014.65 1015.51 1015.85 1016.24 1016.67 1017.15 1016.96 1016.30 1016.37 1016.32 1016.11 1017.11 1017.75 1018.19 1019.04 1019.67 1020.14 1020.16 1019.52 1018.40 1018.37 1015.52 1014.78 1013.94 1013.10 1012.27 1011.93 1011.81 1011.95
1001.12 1002.69 1004.06 1005.14 1006.30 1007.40 1008.73 1010.45 1011.78 1012.46 1012.11 1012.67 1012.24 1012.43 1013.14 1013.80 1014.84 1015.05 1015.59 1015.87 1016.10 1016.35 1016.02 1016.25 1016.16 1016.23 1016.09 1016.73 1017.35 1017.67 1018.58 1019.74 1020.44 1020.07 1018.31 1017.69 1018.04 1014.92 1013.64 1012.85 1012.21 1011.86 1011.70 1011.57 1011.64
1001.16 1002.97 1004.35 1005.38 1006.09 1007.12 1009.14 1010.52 1010.97 1011.22 1012.04 1012.19 1012.07 1012.66 1013.05 1013.60 1014.24 1014.76 1015.33 1015.53 1015.81 1016.27 1016.01 1015.64 1015.87 1015.64 1015.86 1014.89 1014.97 1015.74 1016.49 1017.64 1018.37 1018.71 1018.12 1017.88 1015.79 1013.38 1012.22 1011.19 1011.11 1011.28 1011.30 1011.23 1011.25
1001.56 1003.75 1004.97 1005.65 1006.19 1007.30 1009.14 1010.20 1010.53 1010.73 1011.31 1011.91 1012.73 1013.08 1013.22 1013.33 1013.59 1014.54 1014.46 1014.67 1014.77 1015.21 1015.50 1015.18 1014.83 1014.34 1015.02 1014.41 1014.45 1015.50 1015.77 1015.78 1017.45 1018.81 1018.43 1016.92 1014.81 1013.27 1011.86 1011.39 1010.98 1011.05 1011.08 1010.99 1011.03
1001.63 1003.96 1005.20 1005.64 1006.35 1007.83 1009.50 1010.10 1010.78 1010.36 1010.89 1011.58 1012.41 1012.94 1013.07 1013.31 1013.59 1013.87 1014.08 1013.41 1013.63 1013.71 1014.12 1014.72 1015.12 1014.72 1014.60 1014.75 1014.67 1014.02 1014.28 1015.95 1016.78 1018.14 1018.10 1016.21 1014.66 1012.43 1011.70 1010.91 1010.91 1011.01 1010.97 1010.91 1011.03
1002.32 1004.33 1005.41 1005.61 1006.74 1008.36 1009.02 1010.15 1010.42 1010.59 1010.59 1011.73 1012.36 1013.19 1013.27 1013.34 1013.32 1013.39 1012.78 1012.94 1012.82 1013.02 1013.65 1014.04 1014.90 1015.44 1015.30 1013.77 1013.45 1014.23 1014.19 1014.61 1015.44 1016.62 1016.45 1015.84 1013.23 1011.15 1010.52 1010.51 1010.69 1010.99 1011.00 1011.03 1011.28
1002.72 1004.24 1005.45 1005.72 1007.05 1008.27 1009.13 1009.63 1009.82 1010.75 1011.12 1011.95 1012.32 1013.02 1013.55 1013.48 1013.67 1013.51 1012.65 1011.61 1011.66 1012.26 1013.07 1013.87 1013.81 1014.55 1014.57 1014.43 1013.45 1012.74 1012.80 1013.02 1014.08 1015.36 1015.54 1015.05 1012.51 1010.57 1010.02 1010.28 1010.37 1010.79 1011.09 1011.13 1011.25
1003.39 1004.71 1005.72 1005.91 1007.29 1008.27 1009.30 1009.73 1009.87 1010.43 1011.07 1012.13 1012.70 1012.74 1013.17 1013.55 1013.88 1013.34 1012.82 1012.15 1011.97 1012.22 1011.86 1013.14 1014.07 1013.65 1014.80 1014.48 1013.66 1013.01 1012.48 1012.41 1012.70 1013.53 1014.15 1014.38 1012.32 1010.97 1010.70 1010.73 1010.79 1010.76 1011.04 1011.14 1011.35
1003.46 1005.53 1006.59 1007.29 1007.67 1008.03 1009.00 1009.62 1010.03 1010.03 1010.72 1011.55 1012.38 1012.67 1013.24 1013.41 1013.29 1012.78 1012.78 1012.20 1011.68 1011.71 1011.93 1012.49 1012.43 1012.29 1012.41 1011.71 1011.63 1011.24 1010.73 1010.87 1011.25 1012.02 1012.30 1011.89 1011.72 1011.08 1011.06 1010.94 1010.88 1011.02 1010.84 1011.05 1011.22
1002.83 1005.41 1006.08 1007.53 1008.67 1008.59 1008.97 1009.51 1009.95 1010.18 1010.52 1011.02 1012.06 1011.95 1012.36 1012.97 1012.67 1012.14 1011.83 1011.82 1011.56 1011.55 1011.32 1011.44 1011.11 1012.36 1012.06 1012.28 1011.24 1010.90 1011.02 1010.95 1011.01 1010.04 1010.70 1009.92 1010.59 1010.25 1010.00 1010.12 1010.16 1010.32 1010.77 1010.99 1010.99
1002.99 1004.89 1006.27 1007.45 1008.39 1008.96 1009.29 1009.52 1009.58 1010.04 1010.16 1010.78 1011.22 1011.86 1012.00 1011.88 1011.22 1011.16 1011.12 1011.60 1011.59 1010.14 1010.50 1010.91 1010.76 1011.25 1011.76 1011.89 1010.77 1010.34 1010.63 1010.69 1010.52 1010.30 1010.19 1009.51 1009.49 1009.16 1009.06 1009.60 1009.95 1010.07 1010.46 1010.73 1010.80
1003.14 1004.22 1005.38 1007.84 1008.79 1009.29 1008.68 1008.80 1009.03 1009.67 1009.80 1009.89 1010.79 1011.52 1011.18 1010.11 1010.38 1010.53 1010.59 1010.62 1010.35 1011.12 1011.92 1010.74 1011.00 1010.73 1011.26 1011.63 1010.92 1010.19 1008.87 1008.71 1008.60 1008.75 1008.05 1008.32 1007.26 1008.61 1008.79 1009.19 1009.30 1009.72 1009.67 1010.05 1010.45
Wind_Speed
20 18 16 14 13 12 11 11 14 12 13 12 12 12 11 11 7 2 4 2 5 4 4 7 2 2 3 3 4 3 4 3 4 6 2 3 3 3 0 6 5 4 3 5 15
21 19 17 16 15 13 11 10 13 15 13 12 13 13 13 11 3 6 4 5 6 4 3 6 4 4 3 3 5 3 1 4 6 4 4 1 3 5 5 4 4 6 8 10 9
23 21 18 17 15 15 12 11 11 13 15 13 13 14 14 8 1 6 16 10 7 5 1 2 8 4 3 2 5 2 4 5 1 4 5 3 3 2 6 3 7 10 11 10 6
24 22 21 18 16 16 15 12 13 13 15 16 14 15 15 4 7 1 9 18 10 5 3 3 4 6 2 5 2 4 8 10 6 2 3 1 2 2 3 3 4 16 18 13 11
25 23 20 19 17 16 16 13 14 15 16 15 16 18 8 4 5 3 3 16 8 4 4 5 7 6 5 3 4 3 3 6 8 1 2 1 4 1 5 3 2 16 15 15 12
26 24 21 18 16 17 15 14 14 15 16 16 18 19 6 13 4 7 12 9 7 6 5 4 7 7 7 6 6 10 5 9 5 5 2 4 2 2 2 4 9 15 11 11 12
28 26 24 20 17 15 14 13 16 15 16 17 19 13 8 15 2 10 13 7 6 8 5 5 2 2 4 2 9 7 7 8 5 4 4 3 6 5 4 4 9 10 11 11 12
29 27 25 23 20 17 13 11 15 15 17 16 18 5 6 5 2 5 7 5 8 7 5 6 3 2 2 3 2 5 2 10 10 6 6 7 9 7 8 5 7 10 9 13 14
30 27 26 24 22 18 15 13 13 14 15 13 8 5 8 5 6 4 7 10 12 5 6 1 3 4 1 3 2 5 5 6 5 10 5 8 4 10 11 9 9 8 9 10 12
31 28 26 25 22 19 16 16 16 13 8 5 3 3 6 9 5 4 6 10 6 7 3 4 3 4 2 5 12 5 6 7 14 8 8 8 10 7 4 8 9 8 8 10 12
31 28 26 24 22 20 17 9 9 5 12 7 10 1 10 8 6 6 8 7 3 5 7 5 6 16 15 8 3 3 6 9 4 9 9 10 9 11 11 5 8 9 8 8 13
31 29 26 24 22 20 12 7 16 8 10 11 3 11 3 7 6 6 11 13 9 13 9 5 14 14 8 8 8 9 5 6 6 2 7 6 15 12 8 9 10 10 9 10 7
32 30 28 25 21 13 14 11 15 8 5 12 4 7 5 6 6 15 17 9 6 18 19 16 9 11 12 9 13 12 9 5 5 1 1 2 8 7 6 8 9 9 11 11 13
33 31 29 26 13 10 12 14 13 4 6 5 13 7 5 6 3 6 16 7 4 6 17 16 12 20 15 18 11 15 9 9 4 4 5 4 8 10 10 18 16 15 13 17 14
33 31 31 27 11 13 12 11 9 6 6 9 9 8 11 10 9 6 8 5 12 14 5 6 16 19 21 24 15 6 9 10 4 2 2 4 5 6 8 9 9 15 21 19 15
34 32 31 12 7 12 14 11 7 7 9 4 8 13 15 9 3 6 6 2 2 12 14 15 4 16 18 15 13 7 6 5 4 2 9 8 8 6 8 8 11 15 13 15 16
34 33 25 12 12 14 15 9 12 6 2 9 10 16 20 15 13 8 14 16 12 8 19 18 21 3 9 17 5 7 10 4 7 6 11 13 9 16 7 9 12 11 9 8 8
34 31 18 5 14 19 9 4 4 4 5 3 7 17 17 14 18 12 14 14 21 11 2 11 12 22 13 19 15 21 17 6 10 8 8 3 11 7 19 23 12 10 9 8 8
33 11 10 4 16 12 13 11 8 7 8 9 6 13 13 10 9 15 19 18 13 23 15 6 6 16 10 6 15 10 15 11 5 3 3 6 7 8 7 13 7 9 7 8 7
11 11 10 12 17 11 12 12 4 4 9 7 7 5 7 13 12 17 17 12 14 17 19 8 4 6 7 9 2 13 18 9 3 3 5 6 5 6 6 15 7 5 9 8 5
11 9 8 15 12 12 14 9 4 4 6 5 5 5 5 7 10 11 8 7 19 10 16 12 7 3 1 9 16 6 15 5 7 5 5 2 8 8 12 8 10 7 5 5 4
5 5 7 12 7 4 9 9 5 6 5 5 5 5 5 6 4 8 11 12 16 16 21 15 5 6 15 1 5 9 14 17 10 10 4 3 7 6 10 9 9 8 7 5 5
5 5 2 4 6 4 5 5 4 5 6 5 4 3 4 5 4 7 8 6 9 19 19 13 7 10 5 4 3 17 6 19 3 5 9 6 7 1 3 6 6 10 8 7 5
6 6 4 2 1 9 7 7 7 7 6 7 6 6 5 5 5 5 4 3 5 21 22 13 6 4 10 16 7 25 25 27 23 10 13 18 10 6 8 8 7 8 7 8 7
3 2 3 11 3 8 6 7 11 6 5 6 2 7 7 4 4 8 6 5 8 15 19 14 9 14 16 18 20 15 22 19 21 25 16 20 14 10 10 10 10 9 7 6 6
6 7 2 4 9 7 10 6 14 8 9 6 6 10 9 11 14 5 7 4 7 10 18 12 6 19 19 12 19 19 22 20 19 22 16 19 16 8 7 3 6 9 9 7 6
2 3 7 9 7 6 7 8 9 8 6 8 9 7 15 21 16 12 8 8 9 6 10 14 10 12 12 15 16 15 27 28 26 21 28 23 25 8 8 12 10 9 8 5 5
Wind_Direction
209 211 212 205 202 198 202 204 202 193 189 183 177 166 158 144 128 127 204 226 166 132 129 123 299 330 23 54 8 316 51 327 313 341 172 165 96 36 137 104 49 41 97 159 157
204 207 210 207 206 198 197 206 203 193 185 184 178 158 148 146 137 210 196 154 136 135 127 138 136 11 42 95 349 84 119 183 278 302 39 328 96 130 104 114 68 60 42 115 126
202 200 205 207 205 199 197 199 201 201 183 181 176 164 157 147 88 239 198 175 177 161 43 20 114 82 60 50 135 359 204 273 260 343 24 310 93 93 120 221 182 167 150 147 146
197 198 197 204 204 199 200 197 194 193 198 180 171 150 154 180 198 225 196 185 164 163 166 185 113 103 124 173 161 197 207 265 284 8 293 101 303 87 182 215 172 163 156 155 166
196 194 197 197 201 203 198 194 198 194 198 186 169 147 138 196 231 259 220 151 139 177 198 191 144 127 171 196 95 136 284 254 268 238 313 111 88 167 291 272 80 138 151 159 173
194 189 193 198 198 194 191 192 197 191 197 186 174 153 149 211 164 128 126 129 155 173 224 207 189 188 166 185 203 184 209 289 245 223 233 179 159 72 327 128 118 143 155 162 172
190 186 185 190 196 196 190 193 190 189 192 184 169 163 199 199 199 140 139 166 181 180 181 231 264 219 186 195 219 210 187 247 254 224 254 163 295 227 227 152 149 158 163 169 184
185 185 181 183 187 191 187 191 180 182 188 180 163 146 220 209 354 155 141 149 187 191 216 233 278 96 279 310 119 154 182 218 231 206 251 159 248 252 229 190 208 191 183 177 188
181 181 177 177 178 181 181 178 174 178 173 164 145 193 221 118 196 202 151 165 185 198 202 18 132 167 90 110 67 220 183 180 271 195 190 180 231 230 235 194 218 194 200 195 186
179 175 172 170 168 169 171 161 163 153 166 88 48 155 205 188 162 179 184 154 161 171 70 152 125 143 129 153 202 202 191 202 208 204 186 206 242 247 273 194 205 220 195 190 194
178 171 167 165 164 164 159 142 143 171 181 172 168 347 149 159 126 169 177 137 122 126 172 196 177 201 197 195 276 193 185 215 227 235 182 214 229 231 249 190 215 229 230 202 200
176 169 162 163 164 165 154 179 173 138 169 230 151 206 104 142 151 193 144 180 187 191 154 161 221 203 194 201 199 259 245 236 241 317 167 218 243 238 224 236 221 217 228 235 223
172 167 160 159 162 159 173 178 179 110 128 203 181 186 190 157 161 192 165 184 201 180 185 203 204 188 201 198 205 224 227 222 194 219 8 32 274 256 242 237 236 234 225 227 217
168 165 158 152 147 158 172 191 177 117 96 179 199 239 132 125 234 177 188 144 211 222 192 222 201 183 198 213 192 220 177 234 148 146 231 161 272 236 220 238 236 243 234 232 221
166 162 154 161 135 175 158 167 137 65 184 202 174 178 147 176 135 229 165 226 182 191 183 216 188 185 198 205 197 215 170 193 174 125 50 204 263 273 215 231 240 236 237 234 215
160 158 152 148 123 162 141 155 106 159 218 154 140 164 160 181 176 123 144 186 147 219 220 228 318 190 199 193 193 149 97 58 40 98 234 190 207 204 214 210 244 242 241 228 223
157 156 155 157 162 150 137 146 171 173 262 161 167 167 175 181 185 153 178 191 195 201 205 218 218 301 172 182 147 155 150 189 216 203 252 174 206 249 241 243 233 239 239 253 245
153 151 158 140 144 143 148 152 129 191 176 147 144 163 183 155 202 180 171 202 206 189 198 207 206 195 224 190 178 191 177 162 200 194 214 110 231 238 216 232 243 235 239 261 268
145 145 151 161 145 145 157 193 186 182 146 127 98 167 185 182 155 176 205 211 199 203 210 200 234 188 213 194 164 181 201 173 96 40 90 215 285 299 245 247 233 250 259 263 262
136 144 163 149 148 149 164 196 161 122 121 143 129 151 158 189 188 185 184 181 206 213 203 186 255 226 201 165 175 195 182 178 189 174 240 262 251 229 224 243 242 271 245 264 284
117 143 162 153 151 153 186 183 160 122 112 101 125 145 150 158 199 182 204 201 188 178 201 212 200 179 275 218 170 161 187 203 170 172 185 218 256 221 207 198 165 169 135 114 74
107 122 156 153 149 142 166 164 134 139 78 91 87 105 145 164 142 207 220 212 187 177 194 213 188 194 214 291 236 209 189 184 183 208 209 153 273 309 166 166 153 154 140 127 118
92 87 8 155 147 121 131 148 133 137 142 128 125 141 183 139 177 200 202 259 220 193 175 153 236 173 196 271 1 207 206 199 108 108 202 160 260 341 51 136 176 153 165 166 162
105 123 69 46 142 145 130 184 167 175 139 125 136 131 125 164 211 197 175 287 267 207 204 175 201 149 221 214 178 192 195 196 199 185 205 220 210 219 224 205 186 196 184 182 186
72 137 160 174 210 146 125 162 176 162 132 124 142 174 153 157 210 226 232 255 242 252 201 193 207 207 223 277 188 197 199 196 204 215 193 213 211 210 215 210 201 191 202 188 196
116 135 94 90 122 100 170 197 184 186 147 196 143 182 188 218 214 178 190 170 245 237 200 190 249 194 210 220 196 196 206 209 221 231 252 247 239 209 236 171 171 190 189 212 224
65 66 98 148 138 141 200 174 181 158 235 151 168 179 213 225 235 252 249 246 209 222 282 205 179 177 202 198 191 193 196 193 211 221 219 223 222 180 199 187 187 199 204 211 184